Wind_Speed
30 28 28 28 28 27 26 29 28 27 25 24 23 23 23 23 24 24 25 26 26 27 26 25 30 26 30 37 36 34 34 31 26 26 28 29 29 29
32 32 28 27 26 25 25 26 29 26 25 25 25 23 23 22 24 23 24 26 26 26 26 26 26 30 32 32 33 34 29 35 30 30 32 32 32 31
39 35 30 31 27 27 28 31 30 26 24 26 26 26 25 21 21 23 25 25 26 26 27 27 27 29 31 30 33 34 32 39 35 38 37 34 33 32
36 34 32 33 30 31 31 28 32 30 29 27 25 27 27 28 27 28 30 30 28 27 28 28 28 29 30 31 31 29 34 36 31 41 37 35 33 32
37 31 33 32 35 31 31 31 30 31 30 29 32 30 34 32 30 28 23 27 29 29 29 28 29 31 30 31 31 31 31 33 30 34 37 35 34 35
39 35 31 35 36 32 32 32 34 35 34 33 31 30 33 35 35 32 30 30 32 31 31 32 34 32 30 30 33 35 35 32 32 33 35 35 35 36
46 42 40 36 38 34 35 37 38 36 37 38 41 33 32 38 36 32 34 37 34 32 31 36 35 34 34 33 32 31 31 31 32 33 33 35 37 40
40 40 41 43 45 37 34 32 34 40 37 36 36 38 35 39 40 35 35 38 35 32 34 33 35 35 37 37 31 30 30 30 30 33 34 35 38 35
37 40 43 45 43 39 37 36 42 42 40 39 42 40 37 33 30 33 35 38 35 37 37 36 37 32 31 29 31 35 36 35 36 35 33 36 34 30
36 37 38 40 40 39 39 41 44 43 41 40 43 37 36 37 36 35 37 38 38 37 37 38 34 30 31 33 32 31 31 32 31 32 33 32 28 28
37 36 38 39 41 42 44 43 44 44 41 38 36 37 40 42 37 37 35 36 35 35 37 39 29 27 29 32 34 29 25 30 33 31 25 27 27 28
40 38 38 39 40 41 43 45 45 44 42 41 43 37 37 36 37 36 36 40 38 35 34 29 24 25 26 23 25 27 28 27 23 23 25 26 25 25
45 44 43 41 40 40 41 42 41 39 38 34 37 36 37 40 39 36 38 37 34 31 25 23 23 24 25 24 18 21 24 23 24 22 24 25 26 25
44 43 41 40 39 39 42 43 42 35 37 37 35 37 37 38 36 35 33 29 26 24 25 27 27 28 24 25 23 22 23 25 25 24 26 26 26 27
44 39 38 39 40 36 32 34 32 34 38 38 40 42 38 32 31 29 31 31 30 28 33 32 25 27 30 26 26 25 27 28 29 28 24 25 27 29
40 39 43 41 34 32 33 32 34 34 33 30 28 29 28 26 26 26 27 29 26 26 28 25 29 31 29 29 30 29 28 31 30 27 27 27 29 30
41 44 37 35 34 33 33 32 28 27 27 26 25 26 26 26 27 30 28 27 28 29 29 30 35 32 33 29 27 31 32 31 28 28 28 29 29 30
47 41 40 40 38 33 33 30 29 28 28 28 29 29 29 31 32 32 33 32 32 31 31 29 29 31 32 34 33 30 28 25 26 29 30 28 28 31
34 39 42 42 39 37 36 34 34 35 34 32 32 31 32 30 29 29 30 28 27 28 31 34 33 31 33 31 29 28 28 28 28 28 29 30 30 33
23 26 27 28 29 30 31 30 30 31 32 34 32 30 29 27 27 27 29 30 30 31 32 31 30 31 30 30 31 30 29 29 30 30 30 31 32 34
17 19 20 21 23 24 25 26 28 28 27 26 26 25 25 29 31 29 29 29 29 28 28 28 28 28 29 30 30 29 31 32 32 33 33 34 35 36
17 18 19 20 21 22 22 23 24 23 24 25 26 26 28 28 29 27 26 26 28 29 29 29 28 30 30 31 32 32 32 33 34 35 35 36 37 36
14 16 18 19 20 21 22 23 25 25 25 26 27 28 28 27 26 26 28 29 29 29 28 29 30 32 33 35 35 35 35 35 36 36 36 37 36 36
Wind_Direction
232 235 240 242 237 241 243 247 251 254 258 258 257 259 264 266 267 268 270 275 277 277 276 278 267 271 270 278 285 286 291 296 299 298 300 300 300 301
234 239 237 234 238 245 247 250 256 255 258 261 263 261 263 268 270 272 273 272 275 277 278 276 275 276 279 280 282 286 285 294 290 298 303 300 300 302
235 234 229 234 236 245 255 251 254 253 257 260 265 267 267 267 270 274 273 277 277 276 276 277 278 277 279 282 284 288 264 289 290 290 297 297 299 302
240 231 230 235 246 256 253 254 249 255 258 258 262 264 272 273 274 272 277 277 276 275 277 278 278 278 278 280 283 284 274 286 280 283 293 294 297 300
241 240 239 242 252 255 247 260 261 258 257 262 266 266 271 278 281 274 277 276 285 279 275 273 277 278 278 279 282 283 282 282 271 274 287 290 293 298
242 240 243 246 246 252 255 259 247 259 263 262 256 261 269 275 279 275 274 279 276 283 276 275 278 276 273 276 278 279 282 280 278 279 283 286 291 298
239 237 242 236 247 249 254 255 252 256 252 256 257 262 271 277 280 280 281 281 269 275 280 279 277 273 273 273 275 277 277 275 276 279 283 286 295 300
239 239 239 243 247 249 256 249 247 259 255 258 263 263 270 267 279 276 280 278 271 275 282 282 279 279 273 272 272 275 275 275 276 283 285 294 303 295
236 238 238 241 247 248 252 250 248 254 260 260 261 265 270 272 268 271 271 263 273 275 275 281 276 274 269 268 272 275 274 274 280 284 288 295 292 286
240 241 242 243 244 247 250 253 255 259 260 262 261 260 263 266 275 264 262 266 272 276 272 275 272 264 263 270 273 275 280 283 282 282 291 285 281 280
244 246 246 247 247 247 250 254 259 265 256 264 258 265 263 258 258 260 258 261 276 275 271 274 269 268 268 270 272 267 268 269 278 284 274 275 275 277
243 246 249 249 248 249 249 252 254 256 260 260 262 259 261 250 258 263 263 267 278 266 272 266 274 282 284 268 267 268 269 272 263 266 271 276 276 277
247 250 251 249 248 248 249 253 256 255 251 251 252 256 254 257 250 258 267 261 266 264 261 264 262 273 280 281 276 262 264 267 275 278 275 275 278 277
248 252 248 243 243 245 249 253 257 251 254 243 252 244 244 252 261 253 255 255 253 261 256 262 260 270 270 281 279 281 282 279 280 282 281 276 274 272
254 244 237 239 243 244 247 238 238 243 246 251 251 252 257 250 244 242 244 245 250 254 269 270 261 266 270 276 278 277 277 274 276 281 276 275 276 280
230 236 240 241 241 238 237 243 245 249 246 246 242 232 234 238 241 256 240 248 251 256 259 253 259 264 269 273 271 278 272 274 281 281 280 279 280 283
235 233 228 216 228 228 235 240 241 240 233 230 230 233 236 236 237 238 240 238 244 248 252 253 259 265 270 272 268 270 276 277 276 274 277 279 282 283
219 219 217 224 218 225 229 232 233 231 231 229 232 236 241 243 245 248 248 251 252 252 255 257 256 262 270 277 280 282 282 280 279 280 281 280 280 281
215 218 216 217 218 220 222 226 230 230 234 237 242 252 257 258 257 250 250 247 248 251 255 259 267 272 273 279 279 278 276 277 277 280 282 283 284 285
196 198 202 205 208 214 218 221 223 223 228 237 243 249 254 258 257 258 256 255 255 257 264 271 273 274 276 277 276 275 278 279 278 280 283 286 286 286
218 222 225 228 229 229 231 231 233 236 238 238 241 248 253 254 257 261 262 262 265 265 265 266 269 273 275 277 279 277 277 278 279 282 285 286 285 285
218 219 222 224 227 231 233 234 232 229 231 234 239 242 246 250 254 256 256 258 262 265 269 271 273 275 277 279 281 281 281 281 282 283 283 282 282 283
208 217 222 227 230 235 240 242 244 246 248 253 255 256 254 248 247 250 256 262 266 270 272 273 274 276 278 280 281 281 280 279 280 279 280 280 281 281
Height
3120 3124 3128 3131 3133 3136 3139 3140 3141 3143 3146 3148 3150 3151 3153 3154 3156 3157 3158 3158 3159 3159 3159 3160 3160 3160 3160 3159 3158 3156 3155 3153 3153 3152 3151 3150 3148 3146
3113 3117 3121 3125 3127 3130 3133 3135 3135 3138 3140 3142 3144 3146 3147 3149 3150 3151 3152 3152 3153 3153 3153 3154 3153 3153 3152 3152 3151 3150 3148 3147 3146 3146 3145 3143 3141 3139
3105 3110 3113 3118 3121 3123 3126 3129 3130 3132 3135 3136 3137 3138 3141 3143 3144 3144 3145 3146 3146 3146 3146 3146 3146 3145 3144 3144 3144 3143 3142 3140 3139 3139 3138 3137 3135 3133
3099 3102 3106 3110 3114 3117 3119 3121 3124 3126 3128 3131 3132 3132 3132 3135 3136 3137 3137 3138 3139 3140 3139 3138 3138 3138 3137 3137 3136 3136 3136 3134 3133 3131 3131 3129 3127 3125
3091 3095 3101 3101 3106 3109 3112 3114 3117 3119 3121 3122 3125 3126 3126 3127 3128 3128 3131 3130 3130 3131 3131 3130 3130 3130 3130 3129 3129 3128 3128 3127 3127 3124 3123 3122 3120 3118
3082 3087 3090 3093 3099 3102 3104 3107 3108 3111 3112 3114 3115 3118 3118 3120 3121 3121 3122 3121 3123 3121 3121 3123 3121 3121 3121 3121 3121 3120 3119 3118 3117 3117 3116 3114 3112 3109
3072 3077 3080 3085 3091 3093 3095 3099 3101 3103 3104 3106 3107 3109 3111 3111 3113 3113 3114 3113 3111 3113 3113 3113 3111 3111 3112 3111 3111 3111 3110 3109 3108 3108 3107 3106 3103 3100
3062 3066 3072 3077 3081 3083 3086 3089 3092 3093 3094 3096 3098 3099 3103 3103 3103 3104 3104 3103 3101 3105 3103 3104 3101 3101 3101 3101 3101 3102 3101 3100 3100 3099 3098 3096 3094 3092
3052 3057 3063 3066 3071 3074 3076 3079 3082 3083 3085 3087 3088 3091 3093 3094 3094 3094 3094 3092 3093 3094 3094 3094 3092 3092 3091 3093 3093 3092 3091 3091 3091 3090 3089 3087 3085 3083
3043 3048 3051 3056 3060 3064 3067 3068 3071 3073 3075 3076 3078 3081 3082 3083 3083 3084 3084 3083 3083 3085 3083 3082 3083 3082 3082 3083 3083 3083 3083 3082 3081 3080 3079 3078 3076 3075
3034 3038 3042 3045 3050 3053 3055 3057 3059 3061 3065 3067 3067 3069 3070 3071 3073 3073 3073 3073 3073 3074 3073 3071 3073 3073 3073 3073 3073 3073 3073 3073 3072 3071 3070 3068 3068 3067
3024 3028 3031 3035 3039 3042 3043 3046 3048 3052 3054 3056 3056 3057 3059 3059 3062 3063 3064 3064 3064 3064 3065 3064 3065 3064 3062 3063 3063 3063 3063 3063 3062 3062 3061 3061 3060 3059
3013 3017 3021 3025 3028 3031 3033 3035 3038 3041 3043 3045 3045 3047 3049 3050 3051 3052 3053 3054 3054 3055 3057 3056 3057 3057 3056 3055 3054 3054 3055 3055 3055 3055 3054 3053 3051 3051
3003 3007 3011 3014 3017 3020 3022 3024 3026 3028 3031 3033 3035 3036 3039 3040 3041 3043 3044 3046 3046 3047 3049 3049 3050 3050 3049 3048 3049 3049 3049 3048 3048 3047 3046 3045 3043 3042
2993 2997 3001 3004 3007 3009 3011 3014 3016 3019 3021 3023 3025 3027 3029 3030 3032 3034 3036 3037 3039 3040 3041 3042 3042 3042 3041 3042 3042 3042 3041 3041 3039 3038 3037 3036 3035 3035
2982 2986 2990 2994 2997 3000 3003 3005 3007 3009 3011 3013 3015 3018 3021 3023 3026 3027 3028 3029 3030 3032 3034 3034 3034 3034 3034 3033 3033 3033 3033 3032 3031 3030 3030 3029 3027 3026
2972 2976 2980 2983 2987 2991 2994 2997 2999 3001 3004 3006 3009 3012 3014 3016 3018 3019 3021 3022 3023 3025 3026 3026 3026 3026 3025 3025 3025 3024 3023 3022 3021 3021 3020 3020 3019 3017
2960 2965 2970 2974 2978 2982 2985 2988 2991 2994 2997 3000 3002 3004 3006 3008 3010 3011 3012 3014 3015 3016 3017 3018 3018 3017 3017 3017 3016 3015 3014 3014 3014 3013 3012 3011 3010 3007
2952 2956 2961 2965 2969 2974 2977 2981 2984 2987 2990 2992 2995 2997 2999 3000 3001 3002 3003 3005 3007 3008 3008 3008 3008 3009 3008 3007 3007 3006 3006 3005 3004 3003 3002 3001 3001 2998
2948 2952 2956 2958 2961 2966 2970 2972 2976 2979 2981 2984 2986 2988 2990 2991 2993 2994 2995 2996 2997 2998 2999 3000 2999 2999 2998 2998 2997 2997 2996 2995 2994 2993 2992 2991 2990 2988
2946 2949 2951 2954 2957 2961 2963 2965 2968 2971 2973 2976 2978 2980 2982 2984 2985 2986 2987 2988 2988 2990 2990 2991 2990 2990 2989 2988 2988 2988 2987 2985 2985 2983 2982 2980 2979 2977
2941 2944 2947 2950 2953 2956 2958 2960 2962 2964 2967 2968 2970 2972 2973 2975 2976 2978 2979 2980 2981 2981 2981 2981 2981 2980 2979 2979 2978 2977 2976 2975 2973 2972 2972 2970 2968 2966
2938 2941 2943 2945 2948 2950 2952 2954 2956 2958 2961 2963 2964 2965 2966 2966 2968 2969 2970 2971 2971 2971 2971 2971 2971 2970 2969 2969 2967 2967 2965 2964 2962 2961 2960 2958 2957 2955